Back to catalog

STARLINK-32410

AliveCommunicationsVLEO
NORAD 61887·PAYLOAD·🇺🇸 United States

Launched Nov 9, 2024 from Vandenberg Space Force Base

Loading…

Next Passes (next 24 hours)

TLE

FreshSource: CelesTrak SupGP

Epoch: Sep 14, 2026, 14:21 UTC

1 61887C 24204P   26257.59840278  .00033327  00000+0  98499-3 0  2573
2 61887  53.1582 325.3253 0001240  75.2082 186.9636 15.34363288    13

Track STARLINK-32410 in real time with AllMySat

Download on the App Store